sat.trackr.live / text

‹ back to catalog

STARLINK-35921

NORAD 66640 · 2025-271Z

PAYLOAD ACTIVE UNKNOWN

§ Identity

Operator
Country
US
Launch date
2025-11-23
Launch site
AFWTR
Launch vehicle
Mass (kg)
RCS (m²)

Purposes: comms

External: N2YO · Heavens-Above · Gunter

§ Orbital elements

Epoch: 2026-09-20T10:20:54.511872Z

Period
93.85 min
Inclination
53.1600°
Eccentricity
0.0000992
Mean motion
15.34415185 rev/d
Perigee alt
462.0 km
Apogee alt
463.3 km
Semi-major
6,840.8 km
B*
6.6988e-4
RAAN
313.8790°
Arg perigee
77.0094°
Mean anomaly
283.1019°
Rev number
4,740

§ Raw data

STARLINK-359211 66640U 25271Z   26263.43118648  .00022335  00000+0  66988-3 0  99972 66640  53.1600 313.8790 0000992  77.0094 283.1019 15.34415185 47403

JSON: /api/v1/satellites/66640 · /tle

For live sub-satellite position, see the globe view (requires WebGL).

§ Visibility from observer

Set your observer location to see the next 7 days of passes ≥ 10°. The values pass through the URL so the page stays shareable.

No JS? Fill the form by hand. The geolocation button needs JavaScript.